BEIDOU-2 IGSO-6

Last updated on Sun Jan 18 2026 00:02:47 GMT+0000 (Coordinated Universal Time)

1 41434U 16021A 26017.66345940 -.00000117 00000+0 00000+0 0 9997 2 41434 60.0166 39.5358 0060909 231.7176 179.3855 1.00287116 35979
UTC large
Height (km)
Speed (km/s)
/
Latitude / Longitude
Inclination (degrees)
Orbital Period (minutes)
Azimuth
Elevation
Range (km)
Doppler Factor

Next 0 passes for location: London (51.5072 / 0.1276)

Sorry there are no passes over London.